• In Denmark
  • List of Countries
  • For 7 days
  • Water Temperature
  • Satellite Maps
  • Weather Map
  • Weather Widgets
  • user-avatar
    Login

    Hourly Weather Kaprun

    Today, 21 August, Monday

    Time Temperature Precipitation Wind Pressure Humidity
    00:00 +1°C° 0 mm 2 mps 600 mmHg 92%
    01:00 +1°C° 0 mm 2 mps 600 mmHg 93%
    02:00 +1°C° 0 mm 2 mps 600 mmHg 93%
    03:00 +1°C° 0 mm 2 mps 600 mmHg 93%
    04:00 +1°C° 0 mm 2 mps 600 mmHg 93%
    05:00 +2°C° 0 mm 2 mps 601 mmHg 90%
    06:00 +4°C° 0 mm 1 mps 601 mmHg 87%
    07:00 +5°C° 0 mm 2 mps 602 mmHg 81%
    08:00 +6°C° 0 mm 2 mps 602 mmHg 72%
    09:00 +8°C° 0 mm 2 mps 603 mmHg 63%
    10:00 +10°C° 0 mm 2 mps 604 mmHg 53%
    11:00 +12°C° 0 mm 2 mps 604 mmHg 50%
    12:00 +12°C° 0 mm 2 mps 604 mmHg 48%
    13:00 +13°C° 0 mm 2 mps 604 mmHg 45%
    14:00 +13°C° 0 mm 2 mps 604 mmHg 47%
    15:00 +13°C° 0 mm 2 mps 604 mmHg 50%
    16:00 +12°C° 0 mm 2 mps 603 mmHg 52%
    17:00 +9°C° 0 mm 2 mps 603 mmHg 63%
    18:00 +7°C° 0 mm 2 mps 602 mmHg 75%
    19:00 +7°C° 0 mm 1 mps 601 mmHg 86%
    20:00 +6°C° 0 mm 1 mps 601 mmHg 89%
    21:00 +5°C° 0 mm 1 mps 601 mmHg 92%
    22:00 +4°C° 0 mm 1 mps 601 mmHg 95%
    23:00 +4°C° 0 mm 1 mps 601 mmHg 95%

    Tomorrow, 22 August, Tuesday

    Time Temperature Precipitation Wind Pressure Humidity
    00:00 +3°C° 0 mm 1 mps 601 mmHg 95%
    01:00 +3°C° 0 mm 1 mps 600 mmHg 94%
    02:00 +3°C° 0 mm 1 mps 600 mmHg 93%
    03:00 +3°C° 0 mm 1 mps 600 mmHg 92%
    04:00 +3°C° 0 mm 1 mps 600 mmHg 92%
    05:00 +4°C° 0 mm 1 mps 600 mmHg 87%
    06:00 +5°C° 0 mm 1 mps 601 mmHg 83%
    07:00 +7°C° 0 mm 1 mps 602 mmHg 79%
    08:00 +9°C° 0 mm 1 mps 602 mmHg 70%
    09:00 +11°C° 0 mm 1 mps 603 mmHg 61%
    10:00 +14°C° 0 mm 1 mps 604 mmHg 52%
    11:00 +15°C° 0 mm 1 mps 604 mmHg 50%
    12:00 +15°C° 0 mm 1 mps 604 mmHg 48%
    13:00 +16°C° 0 mm 2 mps 604 mmHg 47%
    14:00 +16°C° 0.1 mm 2 mps 604 mmHg 51%
    15:00 +15°C° 0.1 mm 2 mps 603 mmHg 55%
    16:00 +14°C° 0.1 mm 2 mps 603 mmHg 60%
    17:00 +13°C° 0.1 mm 2 mps 602 mmHg 70%
    18:00 +10°C° 0.1 mm 2 mps 601 mmHg 81%
    19:00 +9°C° 0.1 mm 1 mps 600 mmHg 91%
    20:00 +8°C° 0 mm 1 mps 600 mmHg 93%
    21:00 +7°C° 0 mm 1 mps 600 mmHg 95%
    22:00 +6°C° 0 mm 1 mps 600 mmHg 97%
    23:00 +6°C° 0 mm 1 mps 600 mmHg 97%

    Day after tomorrow, 23 August, Wednesday

    Time Temperature Precipitation Wind Pressure Humidity
    00:00 +6°C° 0 mm 1 mps 599 mmHg 97%
    01:00 +5°C° 0 mm 1 mps 599 mmHg 96%
    02:00 +5°C° 0 mm 1 mps 599 mmHg 96%
    03:00 +5°C° 0 mm 1 mps 599 mmHg 95%
    04:00 +5°C° 0 mm 1 mps 599 mmHg 95%
    05:00 +6°C° 0 mm 1 mps 599 mmHg 91%
    06:00 +7°C° 0 mm 1 mps 600 mmHg 87%
    07:00 +8°C° 0 mm 1 mps 601 mmHg 83%
    08:00 +11°C° 0 mm 1 mps 602 mmHg 72%
    09:00 +14°C° 0 mm 1 mps 603 mmHg 61%
    10:00 +16°C° 0 mm 1 mps 604 mmHg 50%
    11:00 +18°C° 0 mm 1 mps 604 mmHg 48%
    12:00 +19°C° 0 mm 1 mps 604 mmHg 46%
    13:00 +19°C° 0 mm 1 mps 604 mmHg 44%
    14:00 +19°C° 0.2 mm 1 mps 604 mmHg 47%
    15:00 +17°C° 0.2 mm 2 mps 604 mmHg 50%
    16:00 +17°C° 0.2 mm 2 mps 603 mmHg 54%
    17:00 +15°C° 0.9 mm 1 mps 602 mmHg 65%
    18:00 +12°C° 0.9 mm 1 mps 602 mmHg 77%
    19:00 +9°C° 0.9 mm 0 mps 601 mmHg 88%
    20:00 +9°C° 0.1 mm 1 mps 601 mmHg 88%
    21:00 +8°C° 0.1 mm 1 mps 601 mmHg 89%
    22:00 +8°C° 0.1 mm 1 mps 601 mmHg 89%
    23:00 +7°C° 0 mm 1 mps 600 mmHg 88%

    24 August, Thursday

    Time Temperature Precipitation Wind Pressure Humidity
    00:00 +7°C° 0 mm 1 mps 600 mmHg 87%
    01:00 +7°C° 0 mm 1 mps 600 mmHg 86%
    02:00 +7°C° 0 mm 1 mps 600 mmHg 84%
    03:00 +7°C° 0 mm 1 mps 600 mmHg 82%
    04:00 +6°C° 0 mm 1 mps 600 mmHg 80%
    05:00 +8°C° 0 mm 1 mps 600 mmHg 76%
    06:00 +9°C° 0 mm 1 mps 601 mmHg 72%
    07:00 +11°C° 0 mm 1 mps 602 mmHg 67%
    08:00 +13°C° 0 mm 1 mps 603 mmHg 59%
    09:00 +16°C° 0 mm 1 mps 604 mmHg 50%
    10:00 +18°C° 0 mm 0 mps 605 mmHg 41%
    11:00 +19°C° 0 mm 0 mps 606 mmHg 40%
    12:00 +21°C° 0 mm 1 mps 606 mmHg 39%
    13:00 +21°C° 0 mm 1 mps 606 mmHg 39%
    14:00 +21°C° 0.1 mm 1 mps 605 mmHg 43%
    15:00 +20°C° 0.1 mm 1 mps 605 mmHg 48%
    16:00 +19°C° 0.1 mm 1 mps 604 mmHg 52%
    17:00 +16°C° 0.8 mm 1 mps 604 mmHg 64%
    18:00 +14°C° 0.8 mm 1 mps 603 mmHg 76%
    19:00 +10°C° 0.8 mm 0 mps 602 mmHg 88%
    20:00 +11°C° 0.4 mm 1 mps 602 mmHg 88%
    21:00 +10°C° 0.4 mm 1 mps 602 mmHg 88%
    22:00 +10°C° 0.4 mm 1 mps 602 mmHg 89%
    23:00 +9°C° 0.2 mm 1 mps 602 mmHg 88%

    25 August, Friday

    Time Temperature Precipitation Wind Pressure Humidity
    00:00 +9°C° 0.2 mm 1 mps 601 mmHg 87%
    01:00 +9°C° 0.2 mm 1 mps 601 mmHg 87%
    02:00 +8°C° 0 mm 1 mps 601 mmHg 85%
    03:00 +8°C° 0 mm 1 mps 601 mmHg 84%
    04:00 +8°C° 0 mm 1 mps 600 mmHg 83%
    05:00 +9°C° 0 mm 1 mps 601 mmHg 79%
    06:00 +10°C° 0 mm 1 mps 602 mmHg 76%
    07:00 +11°C° 0 mm 1 mps 602 mmHg 73%
    08:00 +14°C° 0 mm 1 mps 603 mmHg 63%
    09:00 +18°C° 0 mm 1 mps 604 mmHg 53%
    10:00 +21°C° 0 mm 1 mps 606 mmHg 44%
    11:00 +21°C° 0 mm 1 mps 606 mmHg 42%
    12:00 +22°C° 0 mm 1 mps 606 mmHg 40%
    13:00 +23°C° 0 mm 1 mps 606 mmHg 38%
    14:00 +21°C° 0.1 mm 2 mps 605 mmHg 42%
    15:00 +21°C° 0.1 mm 2 mps 605 mmHg 46%
    16:00 +20°C° 0.1 mm 2 mps 604 mmHg 51%
    17:00 +18°C° 0.3 mm 2 mps 604 mmHg 62%
    18:00 +15°C° 0.3 mm 1 mps 603 mmHg 73%
    19:00 +13°C° 0.3 mm 1 mps 602 mmHg 84%
    20:00 +12°C° 0 mm 1 mps 602 mmHg 85%
    21:00 +12°C° 0 mm 1 mps 602 mmHg 85%
    22:00 +10°C° 0 mm 2 mps 602 mmHg 86%
    23:00 +10°C° 0 mm 2 mps 601 mmHg 86%

    26 August, Saturday

    Time Temperature Precipitation Wind Pressure Humidity
    00:00 +9°C° 0 mm 2 mps 601 mmHg 86%
    01:00 +9°C° 0 mm 2 mps 601 mmHg 85%
    02:00 +9°C° 0 mm 2 mps 601 mmHg 85%
    03:00 +8°C° 0 mm 2 mps 600 mmHg 84%
    04:00 +8°C° 0 mm 2 mps 600 mmHg 83%
    05:00 +9°C° 0 mm 2 mps 601 mmHg 81%
    06:00 +10°C° 0 mm 2 mps 601 mmHg 79%
    07:00 +12°C° 0 mm 2 mps 602 mmHg 77%
    08:00 +15°C° 0 mm 1 mps 603 mmHg 67%
    09:00 +18°C° 0 mm 1 mps 604 mmHg 57%
    10:00 +21°C° 0 mm 1 mps 605 mmHg 47%
    11:00 +21°C° 0 mm 2 mps 605 mmHg 45%
    12:00 +23°C° 0 mm 2 mps 605 mmHg 43%
    13:00 +23°C° 0 mm 2 mps 605 mmHg 41%
    14:00 +23°C° 0.4 mm 2 mps 605 mmHg 46%
    15:00 +21°C° 0.4 mm 2 mps 604 mmHg 50%
    16:00 +20°C° 0.4 mm 2 mps 604 mmHg 55%
    17:00 +18°C° 0.3 mm 2 mps 603 mmHg 65%
    18:00 +16°C° 0.3 mm 2 mps 602 mmHg 75%
    19:00 +14°C° 0.3 mm 1 mps 601 mmHg 86%
    20:00 +13°C° 0.4 mm 1 mps 601 mmHg 87%
    21:00 +12°C° 0.4 mm 2 mps 601 mmHg 89%
    22:00 +10°C° 0.4 mm 2 mps 601 mmHg 90%
    23:00 +10°C° 0.6 mm 2 mps 601 mmHg 90%
    Show more